FW6626 Weather Reports


Display with metric or nautical units.
time (UTC)temp
F
wind
direction
speed
MPH
gust
MPH
rain 1hr
in
rain 24hr
in
rain mn
in
humidity
%
barometer
mb
20260506233058 66 252 7.0 14.0 0.00 0.00 0.00 75 1016.2
20260506231555 66 360 7.0 14.0 0.00 0.00 0.00 75 1016.4
20260506230052 66 260 9.0 15.0 0.00 0.00 0.00 75 1016.6
20260506224559 66 252 9.0 17.0 0.00 0.01 0.00 74 1016.6
20260506223050 66 223 9.0 17.0 0.00 0.01 0.00 74 1016.8
20260506221551 67 242 9.0 17.0 0.00 0.01 0.00 73 1016.9
20260506220054 67 232 8.0 17.0 0.00 0.01 0.00 73 1017.1
20260506214550 67 261 9.0 18.0 0.00 0.01 0.00 74 1017.3
20260506213053 66 279 10.0 16.0 0.00 0.01 0.00 74 1017.3
20260506211552 66 265 9.0 17.0 0.00 0.01 0.00 73 1017.5
20260506210054 66 273 10.0 17.0 0.00 0.01 0.00 73 1017.5
20260506204549 67 360 7.0 17.0 0.00 0.01 0.00 72 1017.7
20260506203051 66 360 7.0 15.0 0.00 0.01 0.00 73 1017.8
20260506201555 67 273 6.0 13.0 0.00 0.01 0.00 72 1017.8
20260506200054 66 279 6.0 16.0 0.00 0.01 0.00 72 1018.0
20260506194554 66 275 7.0 15.0 0.00 0.01 0.00 71 1018.2
20260506193051 67 277 7.0 15.0 0.00 0.01 0.00 70 1018.4
20260506191551 66 248 7.0 14.0 0.00 0.01 0.00 71 1018.4
20260506190058 67 310 6.0 14.0 0.00 0.01 0.00 69 1018.4
20260506184555 66 275 7.0 12.0 0.00 0.01 0.00 68 1018.4
20260506183057 66 260 5.0 11.0 0.00 0.01 0.00 67 1018.7
20260506181558 67 295 5.0 11.0 0.00 0.01 0.00 68 1018.6
20260506180051 66 281 5.0 13.0 0.00 0.01 0.00 70 1018.8
20260506174557 66 268 4.0 12.0 0.00 0.01 0.00 70 1018.9
20260506173122 65 292 5.0 10.0 0.00 0.01 0.00 70 1018.9
20260506171601 65 252 5.0 12.0 0.00 0.01 0.00 70 1018.9
20260506170055 65 250 5.0 10.0 0.00 0.01 0.00 69 1018.9
20260506164557 65 269 4.0 10.0 0.00 0.02 0.00 69 1018.9
20260506163104 66 236 3.0 8.0 0.00 0.02 0.00 69 1018.9
20260506161617 65 239 2.0 8.0 0.00 0.02 0.00 69 1018.9
20260506160049 63 302 2.0 7.0 0.00 0.02 0.00 72 1018.9
20260506154552 64 297 2.0 7.0 0.00 0.02 0.00 71 1018.9
20260506153057 68 78 1.0 4.0 0.00 0.02 0.00 66 1018.9
20260506151549 67 98 2.0 4.0 0.00 0.02 0.00 67 1018.9
20260506150056 65 108 3.0 6.0 0.00 0.02 0.00 69 1018.9
20260506144551 63 78 2.0 4.0 0.00 0.02 0.00 71 1018.8
20260506143052 62 74 2.0 5.0 0.00 0.02 0.00 73 1018.7
20260506141554 60 76 3.0 7.0 0.00 0.02 0.00 74 1018.5
20260506140054 59 74 3.0 5.0 0.00 0.02 0.00 76 1018.5
20260506134555 57 53 2.0 5.0 0.00 0.02 0.00 79 1018.4
20260506133055 55 44 3.0 5.0 0.00 0.02 0.00 80 1018.3
20260506131602 54 51 3.0 5.0 0.00 0.02 0.00 83 1018.2
20260506130131 53 49 2.0 4.0 0.00 0.02 0.00 83 1018.1
20260506124559 54 49 3.0 5.0 0.00 0.02 0.00 83 1017.9
20260506123053 54 55 4.0 6.0 0.00 0.02 0.00 83 1017.9
20260506121556 53 49 2.0 5.0 0.00 0.02 0.00 83 1017.7
20260506120056 54 35 2.0 4.0 0.00 0.02 0.00 83 1017.9
20260506114557 54 30 2.0 4.0 0.00 0.03 0.00 83 1017.8
20260506113058 53 31 2.0 4.0 0.00 0.03 0.00 82 1017.8
20260506111607 54 40 2.0 5.0 0.00 0.03 0.00 83 1017.7
20260506110111 54 30 2.0 4.0 0.00 0.03 0.00 83 1017.8
20260506104600 54 38 2.0 5.0 0.00 0.03 0.00 82 1017.7
20260506103110 54 14 2.0 4.0 0.00 0.03 0.00 83 1017.7
20260506101608 54 17 3.0 5.0 0.00 0.03 0.00 82 1017.5
20260506100121 55 5 2.0 4.0 0.00 0.03 0.00 82 1017.5
20260506094553 55 5 1.0 4.0 0.00 0.03 0.00 81 1017.6
20260506093053 56 346 2.0 3.0 0.00 0.03 0.00 80 1017.5
20260506091604 56 346 1.0 3.0 0.00 0.03 0.00 81 1017.5
20260506090108 56 0 0.0 2.0 0.00 0.03 0.00 80 1017.7
20260506084620 56 346 0.0 1.0 0.00 0.03 0.00 80 1017.9
20260506083055 56 346 0.0 2.0 0.00 0.03 0.00 80 1018.0
20260506081554 57 346 1.0 4.0 0.00 0.03 0.00 80 1018.0
20260506073054 58 242 1.0 2.0 0.00 0.03 0.00 80 1018.3
20260506071559 57 0 0.0 2.0 0.00 0.03 0.00 80 1018.4
20260506061550 57 0 0.0 1.0 0.00 0.03 0.03 80 1018.1
20260506044653 59 0 0.0 3.0 0.00 0.03 0.03 77 1017.6
20260506043050 59 250 2.0 5.0 0.00 0.03 0.03 77 1017.5
20260506041601 59 240 1.0 5.0 0.00 0.03 0.03 77 1017.3
20260506040054 59 254 2.0 7.0 0.00 0.03 0.03 76 1017.2
20260506034623 59 254 3.0 7.0 0.00 0.03 0.03 77 1016.9
20260506033101 60 265 3.0 7.0 0.00 0.03 0.03 76 1016.6
20260506031550 59 252 1.0 7.0 0.00 0.03 0.03 76 1016.5
20260506030057 60 253 4.0 11.0 0.00 0.03 0.03 75 1016.3
20260506024554 60 257 3.0 7.0 0.00 0.03 0.03 75 1016.1
20260506023108 60 244 3.0 8.0 0.00 0.03 0.03 74 1016.0
20260506021553 60 239 4.0 8.0 0.00 0.03 0.03 73 1015.7
20260506020054 61 241 2.0 10.0 0.00 0.03 0.03 72 1015.5
20260506014551 62 249 5.0 10.0 0.00 0.03 0.03 70 1015.4
20260506013052 63 261 7.0 14.0 0.00 0.03 0.03 68 1015.4
20260506011610 64 254 8.0 14.0 0.00 0.03 0.03 67 1015.1
20260506004625 64 267 8.0 17.0 0.00 0.03 0.03 66 1015.2
20260506003113 65 259 6.0 13.0 0.00 0.03 0.03 64 1015.2
20260506001557 64 263 7.0 14.0 0.00 0.03 0.03 66 1015.2
20260506000051 65 282 8.0 16.0 0.00 0.03 0.03 67 1015.1
20260505234617 65 360 9.0 17.0 0.00 0.03 0.03 64 1015.1